Time,TemperatureF,DewpointF,PressureIn,WindDirection,WindDirectionDegrees,WindSpeedMPH,WindSpeedGustMPH,Humidity,HourlyPrecipIn,Conditions,Clouds,dailyrainin,SolarRadiationWatts/m^2,SoftwareType,DateUTC
2013-01-12 00:00:00,42.7,38.3,29.84,NNW,340,0.7,7.4,84,0.00,,,-99.99,1.0,HOBO +U30 +Weather +,2013-01-12 08:00:00,
2013-01-12 00:05:00,42.7,38.2,29.84,NNW,345,0.0,5.1,84,0.00,,,-99.99,1.0,HOBO +U30 +Weather +,2013-01-12 08:05:00,
2013-01-12 00:10:00,42.7,38.3,29.84,NNW,334,0.0,3.4,84,0.00,,,-99.99,1.0,HOBO +U30 +Weather +,2013-01-12 08:10:00,
2013-01-12 00:15:00,42.5,38.2,29.84,NNW,331,0.0,5.1,84,0.00,,,-99.99,1.0,HOBO +U30 +Weather +,2013-01-12 08:15:00,
2013-01-12 00:20:00,42.4,38.2,29.84,NNW,331,0.7,4.0,84,0.00,,,-99.99,1.0,HOBO +U30 +Weather +,2013-01-12 08:20:00,
2013-01-12 00:25:00,42.4,38.3,29.84,North,350,0.0,2.9,85,0.00,,,-99.99,1.0,HOBO +U30 +Weather +,2013-01-12 08:25:00,
2013-01-12 00:30:00,42.2,38.2,29.84,NNW,340,0.0,3.4,85,0.00,,,-99.99,1.0,HOBO +U30 +Weather +,2013-01-12 08:30:00,
2013-01-12 00:35:00,42.0,38.2,29.84,NNW,331,0.0,2.9,86,0.00,,,-99.99,1.0,HOBO +U30 +Weather +,2013-01-12 08:35:00,
2013-01-12 00:40:00,41.8,38.1,29.84,NNW,348,0.0,4.0,86,0.00,,,-99.99,1.0,HOBO +U30 +Weather +,2013-01-12 08:40:00,
2013-01-12 00:45:00,41.8,38.3,29.84,North,350,0.0,2.2,87,0.00,,,-99.99,1.0,HOBO +U30 +Weather +,2013-01-12 08:45:00,
2013-01-12 00:50:00,41.6,38.2,29.84,NNW,333,0.0,0.7,87,0.00,,,-99.99,1.0,HOBO +U30 +Weather +,2013-01-12 08:50:00,
2013-01-12 00:55:00,41.7,38.6,29.83,NNW,348,0.0,1.8,88,0.00,,,-99.99,1.0,HOBO +U30 +Weather +,2013-01-12 08:55:00,
2013-01-12 01:00:00,41.8,38.9,29.83,NNW,347,0.0,1.1,89,0.00,,,-99.99,1.0,HOBO +U30 +Weather +,2013-01-12 09:00:00,
2013-01-12 01:05:00,41.6,38.9,29.83,NNW,344,0.0,0.7,89,0.00,,,-99.99,1.0,HOBO +U30 +Weather +,2013-01-12 09:05:00,
2013-01-12 01:10:00,41.5,38.9,29.84,North,3,0.0,1.1,90,0.00,,,-99.99,1.0,HOBO +U30 +Weather +,2013-01-12 09:10:00,
2013-01-12 01:15:00,41.5,39.1,29.84,North,1,0.0,1.8,91,0.00,,,-99.99,1.0,HOBO +U30 +Weather +,2013-01-12 09:15:00,
2013-01-12 01:20:00,41.5,39.4,29.84,North,4,0.0,2.2,92,0.00,,,-99.99,1.0,HOBO +U30 +Weather +,2013-01-12 09:20:00,
2013-01-12 01:25:00,41.8,39.5,29.84,NNE,29,0.0,5.6,91,0.00,,,-99.99,1.0,HOBO +U30 +Weather +,2013-01-12 09:25:00,
2013-01-12 01:30:00,41.8,39.2,29.84,North,6,0.0,2.9,90,0.00,,,-99.99,1.0,HOBO +U30 +Weather +,2013-01-12 09:30:00,
2013-01-12 01:35:00,42.0,38.9,29.85,North,3,0.0,4.5,88,0.00,,,-99.99,1.0,HOBO +U30 +Weather +,2013-01-12 09:35:00,
2013-01-12 01:40:00,41.8,38.5,29.85,North,355,0.0,2.9,87,0.00,,,-99.99,1.0,HOBO +U30 +Weather +,2013-01-12 09:40:00,
2013-01-12 01:45:00,41.8,38.5,29.85,NW,323,0.0,0.7,87,0.00,,,-99.99,1.0,HOBO +U30 +Weather +,2013-01-12 09:45:00,
2013-01-12 01:50:00,41.7,38.5,29.85,NNE,21,0.0,1.8,88,0.00,,,-99.99,1.0,HOBO +U30 +Weather +,2013-01-12 09:50:00,
2013-01-12 01:55:00,42.0,38.4,29.85,NNW,344,0.0,4.0,87,0.00,,,-99.99,1.0,HOBO +U30 +Weather +,2013-01-12 09:55:00,
2013-01-12 02:00:00,42.1,37.7,29.85,NNW,338,0.0,2.9,84,0.00,,,-99.99,1.0,HOBO +U30 +Weather +,2013-01-12 10:00:00,
2013-01-12 02:05:00,42.0,37.1,29.85,NW,319,0.0,2.9,82,0.00,,,-99.99,1.0,HOBO +U30 +Weather +,2013-01-12 10:05:00,
2013-01-12 02:10:00,41.8,36.7,29.85,NNW,338,0.0,6.7,81,0.00,,,-99.99,1.0,HOBO +U30 +Weather +,2013-01-12 10:10:00,
2013-01-12 02:15:00,41.7,36.5,29.85,NNW,345,0.0,3.4,81,0.00,,,-99.99,1.0,HOBO +U30 +Weather +,2013-01-12 10:15:00,
2013-01-12 02:20:00,41.6,36.5,29.85,North,355,0.0,2.9,81,0.00,,,-99.99,1.0,HOBO +U30 +Weather +,2013-01-12 10:20:00,
2013-01-12 02:25:00,41.4,36.3,29.85,NNW,348,0.0,2.9,82,0.00,,,-99.99,1.0,HOBO +U30 +Weather +,2013-01-12 10:25:00,
2013-01-12 02:30:00,40.9,36.1,29.85,North,352,0.0,1.1,82,0.00,,,-99.99,1.0,HOBO +U30 +Weather +,2013-01-12 10:30:00,
2013-01-12 02:35:00,40.7,36.2,29.85,North,352,0.0,1.1,83,0.00,,,-99.99,1.0,HOBO +U30 +Weather +,2013-01-12 10:35:00,
2013-01-12 02:40:00,40.7,36.6,29.85,North,352,0.0,0.0,85,0.00,,,-99.99,1.0,HOBO +U30 +Weather +,2013-01-12 10:40:00,
2013-01-12 02:45:00,40.7,36.7,29.85,North,350,0.0,0.7,85,0.00,,,-99.99,1.0,HOBO +U30 +Weather +,2013-01-12 10:45:00,
2013-01-12 02:50:00,40.9,37.1,29.85,NNE,14,0.0,1.1,86,0.00,,,-99.99,1.0,HOBO +U30 +Weather +,2013-01-12 10:50:00,
2013-01-12 02:55:00,40.8,37.0,29.85,North,3,0.0,3.4,86,0.00,,,-99.99,1.0,HOBO +U30 +Weather +,2013-01-12 10:55:00,
2013-01-12 03:00:00,40.7,37.0,29.85,North,11,0.0,2.2,86,0.00,,,-99.99,1.0,HOBO +U30 +Weather +,2013-01-12 11:00:00,
2013-01-12 03:05:00,40.4,36.9,29.85,North,6,0.0,0.0,87,0.00,,,-99.99,1.0,HOBO +U30 +Weather +,2013-01-12 11:05:00,
2013-01-12 03:10:00,40.5,37.2,29.85,North,1,0.0,0.7,87,0.00,,,-99.99,1.0,HOBO +U30 +Weather +,2013-01-12 11:10:00,
2013-01-12 03:15:00,40.3,37.1,29.85,North,1,0.0,0.7,88,0.00,,,-99.99,1.0,HOBO +U30 +Weather +,2013-01-12 11:15:00,
2013-01-12 03:20:00,40.4,37.3,29.85,North,351,0.0,1.1,88,0.00,,,-99.99,1.0,HOBO +U30 +Weather +,2013-01-12 11:20:00,
2013-01-12 03:25:00,40.0,36.8,29.85,North,0,0.0,0.0,88,0.00,,,-99.99,1.0,HOBO +U30 +Weather +,2013-01-12 11:25:00,
2013-01-12 03:30:00,39.9,36.8,29.86,North,0,0.0,0.0,88,0.00,,,-99.99,1.0,HOBO +U30 +Weather +,2013-01-12 11:30:00,
2013-01-12 03:35:00,40.0,37.0,29.86,North,0,0.0,0.0,88,0.00,,,-99.99,1.0,HOBO +U30 +Weather +,2013-01-12 11:35:00,
2013-01-12 03:40:00,39.9,37.0,29.86,North,0,0.0,0.0,89,0.00,,,-99.99,1.0,HOBO +U30 +Weather +,2013-01-12 11:40:00,
2013-01-12 03:45:00,40.0,37.1,29.86,North,0,0.0,0.0,89,0.00,,,-99.99,1.0,HOBO +U30 +Weather +,2013-01-12 11:45:00,
2013-01-12 03:50:00,39.7,36.8,29.86,North,0,0.0,0.0,89,0.00,,,-99.99,1.0,HOBO +U30 +Weather +,2013-01-12 11:50:00,
2013-01-12 03:55:00,39.8,37.1,29.86,North,0,0.0,0.0,89,0.00,,,-99.99,1.0,HOBO +U30 +Weather +,2013-01-12 11:55:00,
2013-01-12 04:00:00,39.8,37.1,29.86,North,0,0.0,0.0,90,0.00,,,-99.99,1.0,HOBO +U30 +Weather +,2013-01-12 12:00:00,
2013-01-12 04:05:00,39.7,37.1,29.86,North,0,0.0,0.0,90,0.00,,,-99.99,1.0,HOBO +U30 +Weather +,2013-01-12 12:05:00,
2013-01-12 04:10:00,39.9,37.2,29.86,North,355,0.0,0.0,90,0.00,,,-99.99,1.0,HOBO +U30 +Weather +,2013-01-12 12:10:00,
2013-01-12 04:15:00,40.0,37.1,29.85,North,355,0.0,1.1,89,0.00,,,-99.99,1.0,HOBO +U30 +Weather +,2013-01-12 12:15:00,
2013-01-12 04:20:00,39.9,36.8,29.85,NNW,347,0.0,0.7,88,0.00,,,-99.99,1.0,HOBO +U30 +Weather +,2013-01-12 12:20:00,
2013-01-12 04:25:00,40.0,36.6,29.85,NNW,344,0.0,1.1,87,0.00,,,-99.99,1.0,HOBO +U30 +Weather +,2013-01-12 12:25:00,
2013-01-12 04:30:00,40.0,36.3,29.85,NW,321,0.0,1.1,86,0.00,,,-99.99,1.0,HOBO +U30 +Weather +,2013-01-12 12:30:00,
2013-01-12 04:35:00,39.8,35.9,29.85,NNW,331,0.0,0.0,86,0.00,,,-99.99,1.0,HOBO +U30 +Weather +,2013-01-12 12:35:00,
2013-01-12 04:40:00,40.2,36.2,29.85,NNW,337,0.0,1.8,85,0.00,,,-99.99,1.0,HOBO +U30 +Weather +,2013-01-12 12:40:00,
2013-01-12 04:45:00,40.2,35.9,29.85,NNW,348,0.0,0.7,84,0.00,,,-99.99,1.0,HOBO +U30 +Weather +,2013-01-12 12:45:00,
2013-01-12 04:50:00,40.0,35.5,29.85,North,355,0.0,0.0,83,0.00,,,-99.99,1.0,HOBO +U30 +Weather +,2013-01-12 12:50:00,
2013-01-12 04:55:00,39.7,35.2,29.85,North,355,0.0,0.0,83,0.00,,,-99.99,1.0,HOBO +U30 +Weather +,2013-01-12 12:55:00,
2013-01-12 05:00:00,39.5,35.1,29.85,North,355,0.0,0.0,83,0.00,,,-99.99,1.0,HOBO +U30 +Weather +,2013-01-12 13:00:00,
2013-01-12 05:05:00,39.5,35.1,29.85,North,355,0.0,1.1,83,0.00,,,-99.99,1.0,HOBO +U30 +Weather +,2013-01-12 13:05:00,
2013-01-12 05:10:00,39.5,35.0,29.85,North,355,0.0,0.7,83,0.00,,,-99.99,1.0,HOBO +U30 +Weather +,2013-01-12 13:10:00,
2013-01-12 05:15:00,39.5,34.9,29.85,North,355,0.0,0.7,83,0.00,,,-99.99,1.0,HOBO +U30 +Weather +,2013-01-12 13:15:00,
2013-01-12 05:20:00,39.5,34.9,29.86,North,0,0.0,0.7,83,0.00,,,-99.99,1.0,HOBO +U30 +Weather +,2013-01-12 13:20:00,
2013-01-12 05:25:00,39.4,34.6,29.86,North,0,0.0,0.0,83,0.00,,,-99.99,1.0,HOBO +U30 +Weather +,2013-01-12 13:25:00,
2013-01-12 05:30:00,39.7,34.9,29.86,North,0,0.0,0.0,82,0.00,,,-99.99,1.0,HOBO +U30 +Weather +,2013-01-12 13:30:00,
2013-01-12 05:35:00,39.5,34.5,29.86,North,0,0.0,0.0,82,0.00,,,-99.99,1.0,HOBO +U30 +Weather +,2013-01-12 13:35:00,
2013-01-12 05:40:00,39.5,34.6,29.87,North,0,0.0,0.0,82,0.00,,,-99.99,1.0,HOBO +U30 +Weather +,2013-01-12 13:40:00,
2013-01-12 05:45:00,39.4,34.5,29.87,North,0,0.0,0.0,82,0.00,,,-99.99,1.0,HOBO +U30 +Weather +,2013-01-12 13:45:00,
2013-01-12 05:50:00,39.2,34.5,29.87,North,0,0.0,0.0,83,0.00,,,-99.99,1.0,HOBO +U30 +Weather +,2013-01-12 13:50:00,
2013-01-12 05:55:00,39.4,35.0,29.87,North,0,0.0,0.0,84,0.00,,,-99.99,1.0,HOBO +U30 +Weather +,2013-01-12 13:55:00,
2013-01-12 06:00:00,39.2,35.0,29.87,North,0,0.0,0.0,84,0.00,,,-99.99,1.0,HOBO +U30 +Weather +,2013-01-12 14:00:00,
2013-01-12 06:05:00,39.1,35.1,29.87,North,0,0.0,0.0,85,0.00,,,-99.99,1.0,HOBO +U30 +Weather +,2013-01-12 14:05:00,
2013-01-12 06:10:00,39.0,35.3,29.88,North,0,0.0,0.0,86,0.00,,,-99.99,1.0,HOBO +U30 +Weather +,2013-01-12 14:10:00,
2013-01-12 06:15:00,38.9,35.4,29.88,North,0,0.0,0.0,86,0.00,,,-99.99,1.0,HOBO +U30 +Weather +,2013-01-12 14:15:00,
2013-01-12 06:20:00,39.2,35.9,29.88,North,0,0.0,0.0,87,0.00,,,-99.99,1.0,HOBO +U30 +Weather +,2013-01-12 14:20:00,
2013-01-12 06:25:00,39.3,36.1,29.88,North,0,0.0,0.0,88,0.00,,,-99.99,1.0,HOBO +U30 +Weather +,2013-01-12 14:25:00,
2013-01-12 06:30:00,39.3,36.3,29.88,North,0,0.0,0.0,88,0.00,,,-99.99,1.0,HOBO +U30 +Weather +,2013-01-12 14:30:00,
2013-01-12 06:35:00,39.2,36.2,29.88,North,0,0.0,0.0,88,0.00,,,-99.99,1.0,HOBO +U30 +Weather +,2013-01-12 14:35:00,
2013-01-12 06:40:00,39.2,36.3,29.88,North,0,0.0,0.0,89,0.00,,,-99.99,1.0,HOBO +U30 +Weather +,2013-01-12 14:40:00,
2013-01-12 06:45:00,38.8,35.9,29.88,North,0,0.0,0.0,89,0.00,,,-99.99,1.0,HOBO +U30 +Weather +,2013-01-12 14:45:00,
2013-01-12 06:50:00,39.7,37.1,29.88,North,0,0.0,0.0,90,0.00,,,-99.99,1.0,HOBO +U30 +Weather +,2013-01-12 14:50:00,
2013-01-12 06:55:00,40.2,37.3,29.89,North,1,0.0,0.0,89,0.00,,,-99.99,1.0,HOBO +U30 +Weather +,2013-01-12 14:55:00,
2013-01-12 07:00:00,39.6,36.5,29.89,NNE,20,0.0,0.7,88,0.00,,,-99.99,1.0,HOBO +U30 +Weather +,2013-01-12 15:00:00,
2013-01-12 07:05:00,39.4,36.4,29.89,NNE,22,0.0,0.0,88,0.00,,,-99.99,1.0,HOBO +U30 +Weather +,2013-01-12 15:05:00,
2013-01-12 07:10:00,39.7,36.9,29.89,NE,38,0.0,0.7,89,0.00,,,-99.99,1.0,HOBO +U30 +Weather +,2013-01-12 15:10:00,
2013-01-12 07:15:00,40.3,36.5,29.89,ENE,62,0.0,1.8,86,0.00,,,-99.99,2.0,HOBO +U30 +Weather +,2013-01-12 15:15:00,
2013-01-12 07:20:00,40.8,35.1,29.89,ENE,60,0.0,1.8,80,0.00,,,-99.99,3.0,HOBO +U30 +Weather +,2013-01-12 15:20:00,
2013-01-12 07:25:00,40.7,35.5,29.89,NE,56,0.7,2.9,81,0.00,,,-99.99,4.0,HOBO +U30 +Weather +,2013-01-12 15:25:00,
2013-01-12 07:30:00,40.6,36.0,29.89,NE,42,0.0,2.9,83,0.00,,,-99.99,7.0,HOBO +U30 +Weather +,2013-01-12 15:30:00,
2013-01-12 07:35:00,40.6,36.7,29.90,NE,52,0.7,2.9,86,0.00,,,-99.99,8.0,HOBO +U30 +Weather +,2013-01-12 15:35:00,
2013-01-12 07:40:00,40.4,37.0,29.90,ENE,66,0.7,4.0,87,0.00,,,-99.99,11.0,HOBO +U30 +Weather +,2013-01-12 15:40:00,
2013-01-12 07:45:00,39.8,36.3,29.90,ENE,72,0.0,0.7,87,0.00,,,-99.99,13.0,HOBO +U30 +Weather +,2013-01-12 15:45:00,
2013-01-12 07:50:00,39.6,36.1,29.90,East,98,0.0,0.0,87,0.00,,,-99.99,14.0,HOBO +U30 +Weather +,2013-01-12 15:50:00,
2013-01-12 07:55:00,39.5,36.0,29.90,ESE,112,0.0,0.0,87,0.00,,,-99.99,16.0,HOBO +U30 +Weather +,2013-01-12 15:55:00,
2013-01-12 08:00:00,39.7,36.3,29.90,ESE,112,0.0,0.0,87,0.00,,,-99.99,41.0,HOBO +U30 +Weather +,2013-01-12 16:00:00,
2013-01-12 08:05:00,39.9,36.4,29.90,ESE,112,0.0,0.0,87,0.00,,,-99.99,86.0,HOBO +U30 +Weather +,2013-01-12 16:05:00,
2013-01-12 08:10:00,40.0,36.6,29.90,ESE,112,0.0,0.0,87,0.00,,,-99.99,101.0,HOBO +U30 +Weather +,2013-01-12 16:10:00,
2013-01-12 08:15:00,40.2,36.8,29.90,ESE,112,0.0,0.0,87,0.00,,,-99.99,114.0,HOBO +U30 +Weather +,2013-01-12 16:15:00,
2013-01-12 08:20:00,40.4,37.0,29.90,SE,128,0.0,0.0,87,0.00,,,-99.99,127.0,HOBO +U30 +Weather +,2013-01-12 16:20:00,
2013-01-12 08:25:00,40.6,37.2,29.90,SSE,157,0.0,0.0,87,0.00,,,-99.99,138.0,HOBO +U30 +Weather +,2013-01-12 16:25:00,
2013-01-12 08:30:00,42.2,38.6,29.90,SSE,156,0.0,0.7,86,0.00,,,-99.99,151.0,HOBO +U30 +Weather +,2013-01-12 16:30:00,
2013-01-12 08:35:00,43.2,38.9,29.91,SSE,156,0.0,1.8,84,0.00,,,-99.99,162.0,HOBO +U30 +Weather +,2013-01-12 16:35:00,
2013-01-12 08:40:00,43.8,38.9,29.91,SSE,147,0.0,2.9,82,0.00,,,-99.99,173.0,HOBO +U30 +Weather +,2013-01-12 16:40:00,
2013-01-12 08:45:00,43.9,38.6,29.91,SSE,159,0.7,4.0,81,0.00,,,-99.99,186.0,HOBO +U30 +Weather +,2013-01-12 16:45:00,
2013-01-12 08:50:00,44.4,38.9,29.91,ESE,121,0.0,2.9,80,0.00,,,-99.99,197.0,HOBO +U30 +Weather +,2013-01-12 16:50:00,
2013-01-12 08:55:00,45.2,39.3,29.91,SE,129,0.0,2.2,79,0.00,,,-99.99,207.0,HOBO +U30 +Weather +,2013-01-12 16:55:00,
2013-01-12 09:00:00,45.3,38.9,29.91,SE,136,0.7,3.4,78,0.00,,,-99.99,217.0,HOBO +U30 +Weather +,2013-01-12 17:00:00,
2013-01-12 09:05:00,45.2,38.6,29.91,ESE,112,0.0,1.8,77,0.00,,,-99.99,229.0,HOBO +U30 +Weather +,2013-01-12 17:05:00,
2013-01-12 09:10:00,44.5,36.5,29.91,ENE,59,1.1,2.9,73,0.00,,,-99.99,243.0,HOBO +U30 +Weather +,2013-01-12 17:10:00,
2013-01-12 09:15:00,44.6,35.2,29.91,NE,39,1.8,5.1,69,0.00,,,-99.99,253.0,HOBO +U30 +Weather +,2013-01-12 17:15:00,
2013-01-12 09:20:00,45.3,34.6,29.91,NNE,25,1.1,3.4,65,0.00,,,-99.99,266.0,HOBO +U30 +Weather +,2013-01-12 17:20:00,
2013-01-12 09:25:00,45.0,33.7,29.91,NNE,32,1.8,5.6,64,0.00,,,-99.99,277.0,HOBO +U30 +Weather +,2013-01-12 17:25:00,
2013-01-12 09:30:00,44.8,32.3,29.91,NE,49,2.2,6.3,61,0.00,,,-99.99,288.0,HOBO +U30 +Weather +,2013-01-12 17:30:00,
2013-01-12 09:35:00,45.0,31.2,29.90,NE,38,2.9,5.6,58,0.00,,,-99.99,298.0,HOBO +U30 +Weather +,2013-01-12 17:35:00,
2013-01-12 09:40:00,45.3,30.9,29.91,NE,42,2.9,6.3,56,0.00,,,-99.99,309.0,HOBO +U30 +Weather +,2013-01-12 17:40:00,
2013-01-12 09:45:00,44.7,29.6,29.91,NE,39,3.4,7.4,55,0.00,,,-99.99,318.0,HOBO +U30 +Weather +,2013-01-12 17:45:00,
2013-01-12 09:50:00,45.0,29.9,29.91,NE,35,2.2,5.6,55,0.00,,,-99.99,328.0,HOBO +U30 +Weather +,2013-01-12 17:50:00,
2013-01-12 09:55:00,45.3,29.8,29.91,NE,45,2.2,6.3,54,0.00,,,-99.99,337.0,HOBO +U30 +Weather +,2013-01-12 17:55:00,
2013-01-12 10:00:00,45.2,28.1,29.91,NNE,29,2.2,6.7,50,0.00,,,-99.99,344.0,HOBO +U30 +Weather +,2013-01-12 18:00:00,
2013-01-12 10:05:00,46.2,28.5,29.91,NNE,32,1.1,4.0,49,0.00,,,-99.99,353.0,HOBO +U30 +Weather +,2013-01-12 18:05:00,
2013-01-12 10:10:00,45.9,26.9,29.91,NE,35,1.8,5.1,47,0.00,,,-99.99,362.0,HOBO +U30 +Weather +,2013-01-12 18:10:00,
2013-01-12 10:15:00,46.8,28.0,29.91,ENE,67,1.1,5.1,47,0.00,,,-99.99,369.0,HOBO +U30 +Weather +,2013-01-12 18:15:00,
2013-01-12 10:20:00,46.4,26.6,29.91,NNE,31,1.1,5.1,45,0.00,,,-99.99,378.0,HOBO +U30 +Weather +,2013-01-12 18:20:00,
2013-01-12 10:25:00,47.4,27.9,29.91,ENE,74,0.0,2.2,46,0.00,,,-99.99,384.0,HOBO +U30 +Weather +,2013-01-12 18:25:00,
2013-01-12 10:30:00,46.7,28.1,29.91,ENE,58,1.8,5.6,48,0.00,,,-99.99,392.0,HOBO +U30 +Weather +,2013-01-12 18:30:00,
2013-01-12 10:35:00,48.2,29.8,29.91,East,94,0.0,2.9,48,0.00,,,-99.99,399.0,HOBO +U30 +Weather +,2013-01-12 18:35:00,
2013-01-12 10:40:00,47.6,28.6,29.91,ENE,60,0.7,4.0,47,0.00,,,-99.99,406.0,HOBO +U30 +Weather +,2013-01-12 18:40:00,
2013-01-12 10:45:00,48.5,28.3,29.91,NE,41,0.0,2.9,45,0.00,,,-99.99,412.0,HOBO +U30 +Weather +,2013-01-12 18:45:00,
2013-01-12 10:50:00,48.9,28.8,29.91,NE,42,0.7,3.4,45,0.00,,,-99.99,418.0,HOBO +U30 +Weather +,2013-01-12 18:50:00,
2013-01-12 10:55:00,49.9,29.8,29.90,South,170,0.0,2.9,45,0.00,,,-99.99,423.0,HOBO +U30 +Weather +,2013-01-12 18:55:00,
2013-01-12 11:00:00,49.8,30.5,29.90,East,83,0.7,4.5,47,0.00,,,-99.99,428.0,HOBO +U30 +Weather +,2013-01-12 19:00:00,
2013-01-12 11:05:00,49.6,29.9,29.90,ESE,105,0.7,3.4,46,0.00,,,-99.99,433.0,HOBO +U30 +Weather +,2013-01-12 19:05:00,
2013-01-12 11:10:00,50.0,30.2,29.90,SSE,167,1.1,6.3,46,0.00,,,-99.99,437.0,HOBO +U30 +Weather +,2013-01-12 19:10:00,
2013-01-12 11:15:00,50.0,29.9,29.89,ESE,111,0.0,2.2,45,0.00,,,-99.99,446.0,HOBO +U30 +Weather +,2013-01-12 19:15:00,
2013-01-12 11:20:00,50.1,30.6,29.89,East,101,0.7,4.0,46,0.00,,,-99.99,446.0,HOBO +U30 +Weather +,2013-01-12 19:20:00,
2013-01-12 11:25:00,49.9,31.2,29.89,South,181,1.8,4.5,48,0.00,,,-99.99,452.0,HOBO +U30 +Weather +,2013-01-12 19:25:00,
2013-01-12 11:30:00,49.3,30.3,29.88,SSE,154,2.2,6.3,47,0.00,,,-99.99,452.0,HOBO +U30 +Weather +,2013-01-12 19:30:00,
2013-01-12 11:35:00,49.2,30.7,29.88,SSW,202,2.9,8.9,48,0.00,,,-99.99,456.0,HOBO +U30 +Weather +,2013-01-12 19:35:00,
2013-01-12 11:40:00,49.8,30.9,29.88,SSW,195,2.2,7.8,47,0.00,,,-99.99,459.0,HOBO +U30 +Weather +,2013-01-12 19:40:00,
2013-01-12 11:45:00,50.2,31.2,29.88,SE,131,1.8,6.7,47,0.00,,,-99.99,461.0,HOBO +U30 +Weather +,2013-01-12 19:45:00,
2013-01-12 11:50:00,50.8,31.0,29.87,SSW,206,2.9,5.6,46,0.00,,,-99.99,462.0,HOBO +U30 +Weather +,2013-01-12 19:50:00,
2013-01-12 11:55:00,49.3,28.9,29.87,SSW,197,2.9,6.3,45,0.00,,,-99.99,464.0,HOBO +U30 +Weather +,2013-01-12 19:55:00,
2013-01-12 12:00:00,49.0,28.7,29.87,SSW,194,3.4,6.7,45,0.00,,,-99.99,466.0,HOBO +U30 +Weather +,2013-01-12 20:00:00,
2013-01-12 12:05:00,50.5,29.8,29.86,South,170,1.8,8.5,44,0.00,,,-99.99,467.0,HOBO +U30 +Weather +,2013-01-12 20:05:00,
2013-01-12 12:10:00,49.6,27.9,29.86,South,184,2.2,8.5,42,0.00,,,-99.99,468.0,HOBO +U30 +Weather +,2013-01-12 20:10:00,
2013-01-12 12:15:00,50.8,28.7,29.86,South,184,2.2,6.7,42,0.00,,,-99.99,467.0,HOBO +U30 +Weather +,2013-01-12 20:15:00,
2013-01-12 12:20:00,52.2,29.0,29.86,SE,132,0.7,5.1,40,0.00,,,-99.99,476.0,HOBO +U30 +Weather +,2013-01-12 20:20:00,
2013-01-12 12:25:00,51.0,27.1,29.86,ESE,114,0.7,5.1,39,0.00,,,-99.99,466.0,HOBO +U30 +Weather +,2013-01-12 20:25:00,
2013-01-12 12:30:00,51.9,28.2,29.85,SSE,164,1.1,7.8,39,0.00,,,-99.99,466.0,HOBO +U30 +Weather +,2013-01-12 20:30:00,
2013-01-12 12:35:00,51.1,27.5,29.85,ESE,115,2.2,5.6,39,0.00,,,-99.99,464.0,HOBO +U30 +Weather +,2013-01-12 20:35:00,
2013-01-12 12:40:00,51.7,27.7,29.85,SSE,147,0.7,4.5,39,0.00,,,-99.99,463.0,HOBO +U30 +Weather +,2013-01-12 20:40:00,
2013-01-12 12:45:00,52.1,28.3,29.85,ENE,60,0.0,3.4,39,0.00,,,-99.99,464.0,HOBO +U30 +Weather +,2013-01-12 20:45:00,
2013-01-12 12:50:00,51.7,27.3,29.85,SE,129,1.8,6.3,38,0.00,,,-99.99,466.0,HOBO +U30 +Weather +,2013-01-12 20:50:00,
2013-01-12 12:55:00,51.9,27.4,29.85,SSE,164,0.7,4.5,38,0.00,,,-99.99,463.0,HOBO +U30 +Weather +,2013-01-12 20:55:00,
2013-01-12 13:00:00,53.0,27.7,29.84,SSE,154,1.1,6.3,37,0.00,,,-99.99,452.0,HOBO +U30 +Weather +,2013-01-12 21:00:00,
2013-01-12 13:05:00,53.4,27.9,29.84,SW,227,1.8,6.3,37,0.00,,,-99.99,448.0,HOBO +U30 +Weather +,2013-01-12 21:05:00,
2013-01-12 13:10:00,52.9,26.5,29.84,SSE,164,1.8,6.7,35,0.00,,,-99.99,446.0,HOBO +U30 +Weather +,2013-01-12 21:10:00,
2013-01-12 13:15:00,51.9,25.6,29.84,SSE,153,1.8,6.3,35,0.00,,,-99.99,443.0,HOBO +U30 +Weather +,2013-01-12 21:15:00,
2013-01-12 13:20:00,52.8,26.0,29.83,SSW,194,0.7,4.5,35,0.00,,,-99.99,439.0,HOBO +U30 +Weather +,2013-01-12 21:20:00,
2013-01-12 13:25:00,53.3,26.5,29.83,SSE,152,0.7,4.0,35,0.00,,,-99.99,434.0,HOBO +U30 +Weather +,2013-01-12 21:25:00,
2013-01-12 13:30:00,52.5,25.3,29.83,SSE,161,1.8,4.5,34,0.00,,,-99.99,429.0,HOBO +U30 +Weather +,2013-01-12 21:30:00,
2013-01-12 13:35:00,51.2,24.2,29.83,SSW,201,2.9,6.7,34,0.00,,,-99.99,423.0,HOBO +U30 +Weather +,2013-01-12 21:35:00,
2013-01-12 13:40:00,53.2,25.5,29.83,SSW,212,1.1,4.5,33,0.00,,,-99.99,418.0,HOBO +U30 +Weather +,2013-01-12 21:40:00,
2013-01-12 13:45:00,53.0,24.8,29.83,South,171,0.7,5.1,33,0.00,,,-99.99,411.0,HOBO +U30 +Weather +,2013-01-12 21:45:00,
2013-01-12 13:50:00,53.4,25.1,29.83,SSE,152,1.8,5.6,33,0.00,,,-99.99,404.0,HOBO +U30 +Weather +,2013-01-12 21:50:00,
2013-01-12 13:55:00,52.2,24.3,29.83,South,174,1.8,6.3,33,0.00,,,-99.99,397.0,HOBO +U30 +Weather +,2013-01-12 21:55:00,
2013-01-12 14:00:00,51.9,23.8,29.83,NE,37,0.7,3.4,33,0.00,,,-99.99,391.0,HOBO +U30 +Weather +,2013-01-12 22:00:00,
2013-01-12 14:05:00,51.8,23.8,29.83,North,8,0.7,4.5,33,0.00,,,-99.99,384.0,HOBO +U30 +Weather +,2013-01-12 22:05:00,
2013-01-12 14:10:00,52.2,24.7,29.83,North,7,0.7,4.5,34,0.00,,,-99.99,377.0,HOBO +U30 +Weather +,2013-01-12 22:10:00,
2013-01-12 14:15:00,53.2,25.3,29.83,NNW,340,0.7,3.4,33,0.00,,,-99.99,368.0,HOBO +U30 +Weather +,2013-01-12 22:15:00,
2013-01-12 14:20:00,52.6,24.5,29.83,North,352,0.7,4.0,33,0.00,,,-99.99,357.0,HOBO +U30 +Weather +,2013-01-12 22:20:00,
2013-01-12 14:25:00,52.5,24.3,29.83,NNW,343,1.1,3.4,33,0.00,,,-99.99,351.0,HOBO +U30 +Weather +,2013-01-12 22:25:00,
2013-01-12 14:30:00,50.4,22.1,29.83,NNE,21,1.8,4.5,32,0.00,,,-99.99,343.0,HOBO +U30 +Weather +,2013-01-12 22:30:00,
2013-01-12 14:35:00,50.7,23.3,29.83,NNE,21,1.8,5.1,33,0.00,,,-99.99,334.0,HOBO +U30 +Weather +,2013-01-12 22:35:00,
2013-01-12 14:40:00,51.7,23.9,29.82,North,355,1.8,5.6,33,0.00,,,-99.99,326.0,HOBO +U30 +Weather +,2013-01-12 22:40:00,
2013-01-12 14:45:00,51.6,23.4,29.82,North,351,1.1,5.1,32,0.00,,,-99.99,317.0,HOBO +U30 +Weather +,2013-01-12 22:45:00,
2013-01-12 14:50:00,52.6,24.2,29.82,NW,319,0.7,4.0,32,0.00,,,-99.99,307.0,HOBO +U30 +Weather +,2013-01-12 22:50:00,
2013-01-12 14:55:00,51.5,23.4,29.82,NNW,338,0.7,5.1,33,0.00,,,-99.99,294.0,HOBO +U30 +Weather +,2013-01-12 22:55:00,
2013-01-12 15:00:00,51.2,24.2,29.82,NNW,348,1.1,4.5,34,0.00,,,-99.99,286.0,HOBO +U30 +Weather +,2013-01-12 23:00:00,
2013-01-12 15:05:00,51.9,25.4,29.82,NNW,344,0.0,2.9,35,0.00,,,-99.99,276.0,HOBO +U30 +Weather +,2013-01-12 23:05:00,
2013-01-12 15:10:00,52.5,26.0,29.82,WNW,303,0.7,4.5,35,0.00,,,-99.99,264.0,HOBO +U30 +Weather +,2013-01-12 23:10:00,
2013-01-12 15:15:00,51.5,25.1,29.82,WSW,243,1.1,5.1,35,0.00,,,-99.99,254.0,HOBO +U30 +Weather +,2013-01-12 23:15:00,
2013-01-12 15:20:00,51.6,25.7,29.82,NNW,334,0.0,2.2,36,0.00,,,-99.99,243.0,HOBO +U30 +Weather +,2013-01-12 23:20:00,
2013-01-12 15:25:00,51.5,26.3,29.82,WNW,295,0.0,4.0,37,0.00,,,-99.99,231.0,HOBO +U30 +Weather +,2013-01-12 23:25:00,
2013-01-12 15:30:00,50.7,27.4,29.82,NW,321,0.7,2.9,40,0.00,,,-99.99,221.0,HOBO +U30 +Weather +,2013-01-12 23:30:00,
2013-01-12 15:35:00,50.9,28.2,29.82,NNW,329,0.0,2.2,41,0.00,,,-99.99,212.0,HOBO +U30 +Weather +,2013-01-12 23:35:00,
2013-01-12 15:40:00,50.8,28.2,29.82,WNW,303,0.0,4.5,41,0.00,,,-99.99,199.0,HOBO +U30 +Weather +,2013-01-12 23:40:00,
2013-01-12 15:45:00,50.2,28.3,29.82,West,277,1.1,4.5,42,0.00,,,-99.99,188.0,HOBO +U30 +Weather +,2013-01-12 23:45:00,
2013-01-12 15:50:00,50.2,28.5,29.81,West,275,0.7,2.9,42,0.00,,,-99.99,177.0,HOBO +U30 +Weather +,2013-01-12 23:50:00,
2013-01-12 15:55:00,49.7,29.2,29.81,WSW,256,1.1,4.5,44,0.00,,,-99.99,164.0,HOBO +U30 +Weather +,2013-01-12 23:55:00,
2013-01-12 16:00:00,49.5,29.8,29.81,WNW,303,0.7,5.1,46,0.00,,,-99.99,153.0,HOBO +U30 +Weather +,2013-01-13 00:00:00,
2013-01-12 16:05:00,49.2,30.3,29.81,West,271,0.7,4.0,47,0.00,,,-99.99,141.0,HOBO +U30 +Weather +,2013-01-13 00:05:00,
2013-01-12 16:10:00,49.2,30.5,29.81,NW,314,0.7,3.4,48,0.00,,,-99.99,131.0,HOBO +U30 +Weather +,2013-01-13 00:10:00,
2013-01-12 16:15:00,49.1,30.6,29.81,WNW,284,0.0,2.2,48,0.00,,,-99.99,118.0,HOBO +U30 +Weather +,2013-01-13 00:15:00,
2013-01-12 16:20:00,49.6,31.4,29.81,WNW,298,0.0,1.1,49,0.00,,,-99.99,103.0,HOBO +U30 +Weather +,2013-01-13 00:20:00,
2013-01-12 16:25:00,49.2,31.1,29.81,WNW,300,0.0,2.2,49,0.00,,,-99.99,87.0,HOBO +U30 +Weather +,2013-01-13 00:25:00,
2013-01-12 16:30:00,48.3,30.5,29.81,NNW,329,0.0,2.9,49,0.00,,,-99.99,74.0,HOBO +U30 +Weather +,2013-01-13 00:30:00,
2013-01-12 16:35:00,48.3,31.0,29.81,WSW,250,0.0,2.2,51,0.00,,,-99.99,57.0,HOBO +U30 +Weather +,2013-01-13 00:35:00,
2013-01-12 16:40:00,47.8,30.9,29.81,NW,321,0.0,2.9,51,0.00,,,-99.99,44.0,HOBO +U30 +Weather +,2013-01-13 00:40:00,
2013-01-12 16:45:00,46.9,30.4,29.81,WNW,282,0.7,4.0,52,0.00,,,-99.99,33.0,HOBO +U30 +Weather +,2013-01-13 00:45:00,
2013-01-12 16:50:00,46.6,30.4,29.81,WSW,241,0.0,1.8,52,0.00,,,-99.99,24.0,HOBO +U30 +Weather +,2013-01-13 00:50:00,
2013-01-12 16:55:00,46.4,30.4,29.81,WSW,247,0.7,3.4,53,0.00,,,-99.99,18.0,HOBO +U30 +Weather +,2013-01-13 00:55:00,
2013-01-12 17:00:00,45.8,30.1,29.81,WSW,246,1.1,4.0,53,0.00,,,-99.99,13.0,HOBO +U30 +Weather +,2013-01-13 01:00:00,
2013-01-12 17:05:00,45.4,30.4,29.81,WSW,248,0.7,3.4,55,0.00,,,-99.99,9.0,HOBO +U30 +Weather +,2013-01-13 01:05:00,
2013-01-12 17:10:00,45.0,30.5,29.81,WSW,250,0.7,3.4,56,0.00,,,-99.99,6.0,HOBO +U30 +Weather +,2013-01-13 01:10:00,
2013-01-12 17:15:00,45.0,30.9,29.81,WSW,246,0.0,2.2,57,0.00,,,-99.99,3.0,HOBO +U30 +Weather +,2013-01-13 01:15:00,
2013-01-12 17:20:00,44.9,31.0,29.81,West,260,0.0,2.9,57,0.00,,,-99.99,1.0,HOBO +U30 +Weather +,2013-01-13 01:20:00,
2013-01-12 17:25:00,44.9,31.3,29.81,West,265,0.7,2.9,58,0.00,,,-99.99,1.0,HOBO +U30 +Weather +,2013-01-13 01:25:00,
2013-01-12 17:30:00,45.1,31.3,29.81,WSW,251,0.7,2.2,58,0.00,,,-99.99,1.0,HOBO +U30 +Weather +,2013-01-13 01:30:00,
2013-01-12 17:35:00,45.0,31.5,29.81,WSW,240,0.0,1.8,58,0.00,,,-99.99,1.0,HOBO +U30 +Weather +,2013-01-13 01:35:00,
2013-01-12 17:40:00,45.1,32.1,29.81,WSW,258,0.7,2.2,60,0.00,,,-99.99,1.0,HOBO +U30 +Weather +,2013-01-13 01:40:00,
2013-01-12 17:45:00,45.3,32.6,29.81,West,265,0.7,2.9,60,0.00,,,-99.99,1.0,HOBO +U30 +Weather +,2013-01-13 01:45:00,
2013-01-12 17:50:00,45.2,32.7,29.82,West,277,0.0,1.8,61,0.00,,,-99.99,1.0,HOBO +U30 +Weather +,2013-01-13 01:50:00,
2013-01-12 17:55:00,45.4,32.6,29.82,WSW,240,0.7,2.9,60,0.00,,,-99.99,1.0,HOBO +U30 +Weather +,2013-01-13 01:55:00,
2013-01-12 18:00:00,45.4,32.6,29.82,SW,216,0.0,2.2,60,0.00,,,-99.99,1.0,HOBO +U30 +Weather +,2013-01-13 02:00:00,
2013-01-12 18:05:00,45.3,32.5,29.82,WSW,254,0.0,2.2,60,0.00,,,-99.99,1.0,HOBO +U30 +Weather +,2013-01-13 02:05:00,
2013-01-12 18:10:00,45.2,32.6,29.81,West,261,0.7,2.9,61,0.00,,,-99.99,1.0,HOBO +U30 +Weather +,2013-01-13 02:10:00,
2013-01-12 18:15:00,45.3,32.8,29.82,WSW,253,0.0,2.2,61,0.00,,,-99.99,1.0,HOBO +U30 +Weather +,2013-01-13 02:15:00,
2013-01-12 18:20:00,45.2,32.9,29.82,WSW,243,0.0,0.7,61,0.00,,,-99.99,1.0,HOBO +U30 +Weather +,2013-01-13 02:20:00,
2013-01-12 18:25:00,45.2,32.8,29.82,WSW,241,0.0,1.1,61,0.00,,,-99.99,1.0,HOBO +U30 +Weather +,2013-01-13 02:25:00,
2013-01-12 18:30:00,45.2,32.9,29.82,WSW,241,0.0,1.1,61,0.00,,,-99.99,1.0,HOBO +U30 +Weather +,2013-01-13 02:30:00,
2013-01-12 18:35:00,45.3,33.1,29.82,WSW,241,0.0,0.0,62,0.00,,,-99.99,1.0,HOBO +U30 +Weather +,2013-01-13 02:35:00,
2013-01-12 18:40:00,45.3,33.2,29.81,WSW,241,0.0,1.8,62,0.00,,,-99.99,1.0,HOBO +U30 +Weather +,2013-01-13 02:40:00,
2013-01-12 18:45:00,45.2,33.2,29.81,WSW,241,0.0,1.1,62,0.00,,,-99.99,1.0,HOBO +U30 +Weather +,2013-01-13 02:45:00,
2013-01-12 18:50:00,45.3,33.5,29.81,SW,215,0.7,3.4,63,0.00,,,-99.99,1.0,HOBO +U30 +Weather +,2013-01-13 02:50:00,
2013-01-12 18:55:00,45.4,33.4,29.81,SW,223,0.7,2.9,62,0.00,,,-99.99,1.0,HOBO +U30 +Weather +,2013-01-13 02:55:00,
2013-01-12 19:00:00,45.5,33.3,29.81,SW,232,1.8,4.5,62,0.00,,,-99.99,1.0,HOBO +U30 +Weather +,2013-01-13 03:00:00,
2013-01-12 19:05:00,45.7,33.1,29.81,SW,218,2.2,5.1,61,0.00,,,-99.99,1.0,HOBO +U30 +Weather +,2013-01-13 03:05:00,
2013-01-12 19:10:00,45.8,32.8,29.81,SW,225,2.2,5.1,60,0.00,,,-99.99,1.0,HOBO +U30 +Weather +,2013-01-13 03:10:00,
2013-01-12 19:15:00,45.6,33.0,29.81,SW,215,1.1,4.0,61,0.00,,,-99.99,1.0,HOBO +U30 +Weather +,2013-01-13 03:15:00,
2013-01-12 19:20:00,45.5,32.9,29.82,SSW,202,0.7,2.9,61,0.00,,,-99.99,1.0,HOBO +U30 +Weather +,2013-01-13 03:20:00,
2013-01-12 19:25:00,45.5,32.8,29.82,SSW,213,0.0,2.9,61,0.00,,,-99.99,1.0,HOBO +U30 +Weather +,2013-01-13 03:25:00,
2013-01-12 19:30:00,45.6,32.8,29.82,SW,216,0.0,1.8,60,0.00,,,-99.99,1.0,HOBO +U30 +Weather +,2013-01-13 03:30:00,
2013-01-12 19:35:00,45.6,32.7,29.81,SW,227,0.7,2.9,60,0.00,,,-99.99,1.0,HOBO +U30 +Weather +,2013-01-13 03:35:00,
2013-01-12 19:40:00,45.3,32.8,29.82,SW,233,0.0,1.1,61,0.00,,,-99.99,1.0,HOBO +U30 +Weather +,2013-01-13 03:40:00,
2013-01-12 19:45:00,45.1,33.1,29.82,SW,233,0.0,0.0,62,0.00,,,-99.99,1.0,HOBO +U30 +Weather +,2013-01-13 03:45:00,
2013-01-12 19:50:00,45.0,33.0,29.82,WSW,254,0.0,1.8,62,0.00,,,-99.99,1.0,HOBO +U30 +Weather +,2013-01-13 03:50:00,
2013-01-12 19:55:00,45.0,33.1,29.82,West,260,0.0,0.7,62,0.00,,,-99.99,1.0,HOBO +U30 +Weather +,2013-01-13 03:55:00,
2013-01-12 20:00:00,45.2,33.1,29.82,West,271,0.0,1.8,62,0.00,,,-99.99,1.0,HOBO +U30 +Weather +,2013-01-13 04:00:00,
2013-01-12 20:05:00,45.2,33.0,29.82,West,278,0.0,1.8,61,0.00,,,-99.99,1.0,HOBO +U30 +Weather +,2013-01-13 04:05:00,
2013-01-12 20:10:00,45.0,33.1,29.82,West,278,0.0,0.7,62,0.00,,,-99.99,1.0,HOBO +U30 +Weather +,2013-01-13 04:10:00,
2013-01-12 20:15:00,44.7,33.3,29.81,West,278,0.0,0.0,64,0.00,,,-99.99,1.0,HOBO +U30 +Weather +,2013-01-13 04:15:00,
2013-01-12 20:20:00,44.6,33.7,29.81,West,279,0.0,0.7,65,0.00,,,-99.99,1.0,HOBO +U30 +Weather +,2013-01-13 04:20:00,
2013-01-12 20:25:00,44.3,33.8,29.82,West,279,0.0,0.7,66,0.00,,,-99.99,1.0,HOBO +U30 +Weather +,2013-01-13 04:25:00,
2013-01-12 20:30:00,44.2,33.8,29.82,West,279,0.0,0.7,66,0.00,,,-99.99,1.0,HOBO +U30 +Weather +,2013-01-13 04:30:00,
2013-01-12 20:35:00,43.9,33.7,29.82,West,279,0.0,0.0,67,0.00,,,-99.99,1.0,HOBO +U30 +Weather +,2013-01-13 04:35:00,
2013-01-12 20:40:00,43.8,33.7,29.82,West,279,0.0,0.7,67,0.00,,,-99.99,1.0,HOBO +U30 +Weather +,2013-01-13 04:40:00,
2013-01-12 20:45:00,43.9,33.7,29.82,West,279,0.0,0.0,67,0.00,,,-99.99,1.0,HOBO +U30 +Weather +,2013-01-13 04:45:00,
2013-01-12 20:50:00,43.8,33.5,29.81,West,279,0.0,0.0,66,0.00,,,-99.99,1.0,HOBO +U30 +Weather +,2013-01-13 04:50:00,
2013-01-12 20:55:00,43.5,33.3,29.81,West,279,0.0,0.0,66,0.00,,,-99.99,1.0,HOBO +U30 +Weather +,2013-01-13 04:55:00,
2013-01-12 21:00:00,43.6,33.3,29.81,West,279,0.0,0.0,66,0.00,,,-99.99,1.0,HOBO +U30 +Weather +,2013-01-13 05:00:00,
2013-01-12 21:05:00,43.7,33.9,29.82,West,279,0.0,0.7,68,0.00,,,-99.99,1.0,HOBO +U30 +Weather +,2013-01-13 05:05:00,
2013-01-12 21:10:00,43.4,34.0,29.82,WNW,292,0.0,1.1,69,0.00,,,-99.99,1.0,HOBO +U30 +Weather +,2013-01-13 05:10:00,
2013-01-12 21:15:00,42.7,33.8,29.82,WNW,296,0.0,1.1,70,0.00,,,-99.99,1.0,HOBO +U30 +Weather +,2013-01-13 05:15:00,
2013-01-12 21:20:00,42.4,34.0,29.82,WNW,296,0.0,0.7,71,0.00,,,-99.99,1.0,HOBO +U30 +Weather +,2013-01-13 05:20:00,
2013-01-12 21:25:00,42.2,34.2,29.82,NW,307,0.0,1.1,73,0.00,,,-99.99,1.0,HOBO +U30 +Weather +,2013-01-13 05:25:00,
2013-01-12 21:30:00,42.1,34.5,29.82,NW,309,0.0,0.7,74,0.00,,,-99.99,1.0,HOBO +U30 +Weather +,2013-01-13 05:30:00,
2013-01-12 21:35:00,42.1,34.8,29.82,NW,309,0.0,0.7,75,0.00,,,-99.99,1.0,HOBO +U30 +Weather +,2013-01-13 05:35:00,
2013-01-12 21:40:00,42.1,35.2,29.82,NW,309,0.0,0.7,76,0.00,,,-99.99,1.0,HOBO +U30 +Weather +,2013-01-13 05:40:00,
2013-01-12 21:45:00,42.2,35.5,29.82,NW,310,0.0,1.1,76,0.00,,,-99.99,1.0,HOBO +U30 +Weather +,2013-01-13 05:45:00,
2013-01-12 21:50:00,42.3,35.7,29.82,North,354,0.0,4.0,77,0.00,,,-99.99,1.0,HOBO +U30 +Weather +,2013-01-13 05:50:00,
2013-01-12 21:55:00,42.1,35.4,29.82,NNW,345,0.0,0.7,77,0.00,,,-99.99,1.0,HOBO +U30 +Weather +,2013-01-13 05:55:00,
2013-01-12 22:00:00,42.1,35.5,29.82,NNW,344,0.0,1.8,77,0.00,,,-99.99,1.0,HOBO +U30 +Weather +,2013-01-13 06:00:00,
2013-01-12 22:05:00,42.1,35.6,29.83,NNW,343,0.0,2.2,77,0.00,,,-99.99,1.0,HOBO +U30 +Weather +,2013-01-13 06:05:00,
2013-01-12 22:10:00,42.1,35.9,29.83,North,352,0.0,2.2,78,0.00,,,-99.99,1.0,HOBO +U30 +Weather +,2013-01-13 06:10:00,
2013-01-12 22:15:00,42.1,36.0,29.83,North,355,0.0,1.1,78,0.00,,,-99.99,1.0,HOBO +U30 +Weather +,2013-01-13 06:15:00,
2013-01-12 22:20:00,42.0,36.0,29.83,North,354,0.0,2.2,79,0.00,,,-99.99,1.0,HOBO +U30 +Weather +,2013-01-13 06:20:00,
2013-01-12 22:25:00,41.9,36.0,29.83,NNW,340,0.0,2.9,79,0.00,,,-99.99,1.0,HOBO +U30 +Weather +,2013-01-13 06:25:00,
2013-01-12 22:30:00,42.0,35.9,29.83,North,354,0.0,4.0,78,0.00,,,-99.99,1.0,HOBO +U30 +Weather +,2013-01-13 06:30:00,
2013-01-12 22:35:00,41.8,35.9,29.83,NNW,344,0.7,3.4,79,0.00,,,-99.99,1.0,HOBO +U30 +Weather +,2013-01-13 06:35:00,
2013-01-12 22:40:00,41.7,36.0,29.83,North,352,0.0,3.4,79,0.00,,,-99.99,1.0,HOBO +U30 +Weather +,2013-01-13 06:40:00,
2013-01-12 22:45:00,41.6,35.9,29.83,North,354,0.0,3.4,79,0.00,,,-99.99,1.0,HOBO +U30 +Weather +,2013-01-13 06:45:00,
2013-01-12 22:50:00,41.6,35.6,29.84,North,355,0.7,4.0,79,0.00,,,-99.99,1.0,HOBO +U30 +Weather +,2013-01-13 06:50:00,
2013-01-12 22:55:00,41.5,35.6,29.84,NNW,344,0.7,5.1,79,0.00,,,-99.99,1.0,HOBO +U30 +Weather +,2013-01-13 06:55:00,
2013-01-12 23:00:00,41.5,35.3,29.84,North,355,0.7,3.4,78,0.00,,,-99.99,1.0,HOBO +U30 +Weather +,2013-01-13 07:00:00,
2013-01-12 23:05:00,41.5,34.6,29.84,North,355,0.7,2.9,76,0.00,,,-99.99,1.0,HOBO +U30 +Weather +,2013-01-13 07:05:00,
2013-01-12 23:10:00,41.2,34.0,29.85,NNW,327,0.0,3.4,75,0.00,,,-99.99,1.0,HOBO +U30 +Weather +,2013-01-13 07:10:00,
2013-01-12 23:15:00,41.4,34.0,29.85,NNW,343,0.0,4.5,74,0.00,,,-99.99,1.0,HOBO +U30 +Weather +,2013-01-13 07:15:00,
2013-01-12 23:20:00,41.3,33.6,29.85,NNW,347,0.0,2.9,73,0.00,,,-99.99,1.0,HOBO +U30 +Weather +,2013-01-13 07:20:00,
2013-01-12 23:25:00,41.3,33.7,29.85,North,355,0.0,2.9,74,0.00,,,-99.99,1.0,HOBO +U30 +Weather +,2013-01-13 07:25:00,
2013-01-12 23:30:00,41.2,33.6,29.85,North,355,0.0,3.4,74,0.00,,,-99.99,1.0,HOBO +U30 +Weather +,2013-01-13 07:30:00,
2013-01-12 23:35:00,41.0,33.7,29.85,North,350,0.0,2.9,75,0.00,,,-99.99,1.0,HOBO +U30 +Weather +,2013-01-13 07:35:00,
2013-01-12 23:40:00,40.7,33.5,29.85,North,0,0.0,1.1,75,0.00,,,-99.99,1.0,HOBO +U30 +Weather +,2013-01-13 07:40:00,
2013-01-12 23:45:00,40.8,33.9,29.85,NW,313,0.0,2.2,76,0.00,,,-99.99,1.0,HOBO +U30 +Weather +,2013-01-13 07:45:00,
2013-01-12 23:50:00,40.6,34.1,29.85,NW,309,0.0,2.9,77,0.00,,,-99.99,1.0,HOBO +U30 +Weather +,2013-01-13 07:50:00,
2013-01-12 23:55:00,40.2,33.7,29.86,NW,324,0.0,1.1,77,0.00,,,-99.99,1.0,HOBO +U30 +Weather +,2013-01-13 07:55:00,